TimeCDT,TemperatureF,Dew PointF,Humidity,Sea Level PressureIn,VisibilityMPH,Wind Direction,Wind SpeedMPH,Gust SpeedMPH,PrecipitationIn,Events,Conditions,WindDirDegrees,DateUTC
12:56 AM,55.9,52.0,87,30.18,10.0,South,4.6,-,N/A,,Clear,190,2013-08-15 05:56:00
1:56 AM,55.9,50.9,83,30.17,10.0,South,5.8,-,N/A,,Clear,170,2013-08-15 06:56:00
2:56 AM,55.9,52.0,87,30.17,10.0,South,4.6,-,N/A,,Clear,170,2013-08-15 07:56:00
3:56 AM,55.9,52.0,87,30.17,10.0,South,4.6,-,N/A,,Clear,190,2013-08-15 08:56:00
4:56 AM,56.8,52.0,84,30.18,10.0,SSW,4.6,-,N/A,,Clear,200,2013-08-15 09:56:00
5:56 AM,55.9,50.9,83,30.18,10.0,SSW,4.6,-,N/A,,Clear,200,2013-08-15 10:56:00
6:56 AM,57.9,52.0,81,30.18,10.0,SSW,3.5,-,N/A,,Clear,210,2013-08-15 11:56:00
7:56 AM,61.0,52.0,72,30.19,10.0,SSW,4.6,-,N/A,,Clear,210,2013-08-15 12:56:00
8:56 AM,64.9,52.0,63,30.20,10.0,SSW,4.6,-,N/A,,Clear,210,2013-08-15 13:56:00
9:56 AM,66.9,48.9,52,30.20,10.0,SW,5.8,-,N/A,,Partly Cloudy,220,2013-08-15 14:56:00
10:56 AM,68.9,50.0,51,30.20,10.0,SW,4.6,-,N/A,,Clear,230,2013-08-15 15:56:00
11:56 AM,72.9,48.9,43,30.18,10.0,East,4.6,-,N/A,,Scattered Clouds,80,2013-08-15 16:56:00
12:56 PM,73.9,48.9,41,30.17,10.0,Variable,3.5,-,N/A,,Mostly Cloudy,0,2013-08-15 17:56:00
1:56 PM,73.9,47.8,40,30.15,10.0,East,6.9,-,N/A,,Scattered Clouds,80,2013-08-15 18:56:00
2:56 PM,73.9,47.8,40,30.14,10.0,Variable,5.8,-,0.00,,Scattered Clouds,0,2013-08-15 19:56:00
3:56 PM,73.9,48.9,41,30.13,10.0,ENE,5.8,-,N/A,,Scattered Clouds,70,2013-08-15 20:56:00
4:56 PM,75.9,52.0,43,30.11,10.0,East,9.2,-,N/A,,Partly Cloudy,100,2013-08-15 21:56:00
5:56 PM,74.8,50.0,42,30.12,10.0,ESE,3.5,-,N/A,,Clear,110,2013-08-15 22:56:00
6:56 PM,70.0,52.9,55,30.12,10.0,ESE,4.6,-,N/A,,Clear,110,2013-08-15 23:56:00
7:56 PM,68.9,52.9,57,30.12,10.0,ENE,3.5,-,N/A,,Scattered Clouds,60,2013-08-16 00:56:00
8:56 PM,66.9,52.9,61,30.12,10.0,East,5.8,-,N/A,,Clear,90,2013-08-16 01:56:00
9:56 PM,65.8,54.0,65,30.14,10.0,ENE,4.6,-,N/A,,Scattered Clouds,60,2013-08-16 02:56:00
10:56 PM,63.0,54.9,75,30.15,10.0,ESE,5.8,-,N/A,,Mostly Cloudy,120,2013-08-16 03:56:00